Regional Weather Roundup
Issued by NWS

Home | Current Version | Previous Version | Graphics & Text | Print | Product List | Glossary On
Versions: 1 2 3 4 5 6 7 8 9 10 11 12 13 14 15 16 17 18 19 20 21 22 23 24 25 26 27 28 29 30 31 32 33 34 35 36 37 38 39 40 41 42 43 44 45 46 47 48 49 50
000
ASUS43 KMPX 192110
RWRMN
WEATHER ROUNDUP FOR MINNESOTA
NATIONAL WEATHER SERVICE TWIN CITIES/CHANHASSEN MN
400 PM CDT THU APR 19 2018


NOTE: "FAIR" INDICATES FEW OR NO CLOUDS BELOW 12,000 FEET WITH NO
SIGNIFICANT WEATHER AND/OR OBSTRUCTIONS TO VISIBILITY. N/A MEANS
CURRENT SKY AND/OR WEATHER CONDITIONS ARE NOT AVAILABLE.

MNZ060>063-068>070-192200-
   Twin Cities Metro

CITY           SKY/WX    TMP DP  RH WIND       PRES   REMARKS
TWIN CITIES    FAIR      51  17  26 NW5       30.46F
ST PAUL        FAIR      49  18  29 CALM      30.46F
CRYSTAL        FAIR      49  17  28 W9        30.45F
BLAINE         SUNNY     52  18  25 W7        30.45F
LAKEVILLE      FAIR      46  23  39 W8        30.46F
EDEN PRAIRIE   FAIR      49  19  30 W8        30.45F
SOUTH ST PAUL  FAIR      51  15  24 CALM      30.45F
LAKE ELMO      FAIR      50  21  32 W7        30.46F
$$
MNZ001>005-007-008-013>017-022>024-027-028-192200-
   Northwest Minnesota

CITY           SKY/WX    TMP DP  RH WIND       PRES   REMARKS
BEMIDJI        FAIR      53  17  23 W9        30.39S
HALLOCK        FAIR      57  25  28 W5        30.37F
ROSEAU         FAIR      55  28  35 CALM      30.38S
WARROAD        FAIR      55  23  28 E8        30.38F
THIEF RVR FALL FAIR      54  22  28 VRB5      30.40F
CROOKSTON      FAIR      54  28  37 W5        30.40F
FOSSTON        FAIR      55  21  26 W3        30.40S
DETROIT LAKES  FAIR      54  25  32 CALM      30.41S
MOORHEAD       FAIR      55  25  30 CALM      30.41F
PARK RAPIDS    FAIR      53  16  23 W3        30.39F
MAHNOMEN       FAIR      54  22  28 SW8       30.39F
$$
MNZ006-009>011-018-025>026-192200-
   North Central Minnesota

CITY           SKY/WX    TMP DP  RH WIND       PRES   REMARKS
BAUDETTE       FAIR      54  16  22 VRB6      30.38F
FLAG ISLAND    FAIR      39  25  56 SE7       30.37F
INTL FALLS     FAIR      53  11  18 VRB3      30.38F
WASKISH        CLOUDY    54  18  24 SW6       30.39F
BIG FORK       FAIR      54  16  22 SW7       30.38F
LONGVILLE      FAIR      54  10  17 SE7       30.39F
GRAND RAPIDS   FAIR      51  14  22 CALM      30.40F
CRANE LAKE     FAIR      52   7  16 N5        30.40F
ORR            FAIR      54   5  14 CALM      30.36S
COOK           FAIR      54  14  20 W3        30.39F
WALKER         FAIR      53  15  22 E7        30.38F
$$
MNZ012-019>021-037-192200-
   Northeast Minnesota

CITY           SKY/WX    TMP DP  RH WIND       PRES   REMARKS
DULUTH         FAIR      51  16  24 W9        30.38F
ELY            FAIR      52   9  17 NW9       30.37F
HIBBING        FAIR      53  14  21 VRB5      30.38F
EVELETH        FAIR      52  10  18 CALM      30.39F
DULUTH HARBOR  FAIR      50  25  37 E6        30.41S
TWO HARBORS    FAIR      61  27  27 N5        30.36F
SILVER BAY     FAIR      54  19  26 S9        30.36S
GRAND MARAIS     N/A     40  28  62 SW8       30.39F
G MARAIS ARPRT FAIR      52   5  15 CALM      30.36F
$$
MNZ029>031-032-039>041-046>048-054>057-064-192200-
   West Central Minnesota

CITY           SKY/WX    TMP DP  RH WIND       PRES   REMARKS
FERGUS FALLS   FAIR      54  32  43 CALM      30.39F
WHEATON        FAIR      55  30  38 W3        30.43F
MORRIS         FAIR      54  34  47 SW6       30.42F
ALEXANDRIA     FAIR      54  29  38 W9        30.42F
ELBOW LAKE     PTSUNNY   54  34  47 W8        30.42F
WADENA         FAIR      50  27  40 SW5       30.40F
GLENWOOD       FAIR      52  25  35 SW6       30.44S
APPLETON       FAIR      50  25  37 S9        30.44F
BENSON         FAIR      50  21  32 W12       30.46F
ORTONVILLE     FAIR      54  32  43 S6        30.42F
MADISON        FAIR      48  28  46 S8        30.45S
WILLMAR        FAIR      48  28  46 SW6       30.47F
$$
MNZ033>034-036-042>043-049>051-058-059-192200-
   Central Minnesota

CITY           SKY/WX    TMP DP  RH WIND       PRES   REMARKS
ST CLOUD       FAIR      53  23  31 SW5       30.43F
SAUK CENTRE    FAIR      51  28  41 W8        30.43F
PAYNESVILLE    FAIR      51  27  39 W7        30.44F
AITKIN         FAIR      54  16  22 SW8       30.39F
PINE RIVER     FAIR      52  19  28 S8        30.42F
BRAINERD       FAIR      54  16  22 NW7       30.41F
STAPLES        FAIR      50  21  32 NW5       30.41F
LONG PRAIRIE   FAIR      50  28  43 S9        30.43F
LITTLE FALLS   FAIR      50   7  17 CALM      30.43F
LITCHFIELD     FAIR      48  27  43 SW3       30.46F
BUFFALO        FAIR      48  22  35 SW7       30.47F
MAPLE LAKE     FAIR      50  27  40 SW7       30.46F
HUTCHINSON     FAIR      46  28  49 S5        30.48F
$$
MNZ037-044-045-052-053-192200-
   East Central Minnesota

CITY           SKY/WX    TMP DP  RH WIND       PRES   REMARKS
PRINCETON      FAIR      55  19  24 W5        30.44F
MORA           FAIR      52  19  28 W5        30.44F
CAMBRIDGE      FAIR      54  28  37 W5        30.44F
RUSH CITY      FAIR      51  20  29 W8        30.44F
MOOSE LAKE     FAIR      54  19  26 NE3       30.38F
HINCKLEY       FAIR      54  23  30 W7        30.42F
CLOQUET        FAIR      54   9  16 N8        30.39F
MCGREGOR       FAIR      54  16  22 CALM      30.41S
$$
MNZ071>073-080-081-089-090-097-098-192200-
   Southwest Minnesota

CITY           SKY/WX    TMP DP  RH WIND       PRES   REMARKS
MONTEVIDEO     FAIR      48  19  32 SW7       30.46F
GRANITE FALLS  FAIR      44  31  60 S6        30.48F
CANBY          FAIR      48  22  37 SW6       30.46F
MARSHALL       FAIR      43  27  53 W5        30.47F
REDWOOD FALLS  FAIR      40  25  55 S8        30.47F
OLIVIA         FAIR      46  28  49 SW8       30.46F
PIPESTONE      FAIR     N/A N/A N/A S5        30.45F
WINDOM         FAIR      41  18  38 E3        30.46F
WORTHINGTON    FAIR      38  23  55 S3        30.47F
JACKSON        FAIR      39  21  48 SE7       30.47F
TRACY          FAIR      42  27  54 SW6       30.46F
SLAYTON        FAIR      42  27  55 SW5       30.47S
$$
MNZ065>067-074>077-082>085-091>093-192200-
   South Central Minnesota

CITY           SKY/WX    TMP DP  RH WIND       PRES   REMARKS
MANKATO        FAIR      45  22  40 N3        30.48F
NEW ULM        FAIR      43  21  42 CALM      30.47
ST JAMES       FAIR      41  23  48 SE3       30.49F
FAIRMONT       FAIR      39  22  50 E7        30.48F
GLENCOE        FAIR      45  23  42 SW5       30.47F
OWATONNA       FAIR      43  27  52 W7        30.47F
WASECA         FAIR      39  27  60 SW5       30.49F
ALBERT LEA     FAIR      39  16  38 NW3       30.47F
$$
MNZ078>079-086>088-094>096-192200-
   Southeast Minnesota

CITY           SKY/WX    TMP DP  RH WIND       PRES   REMARKS
ROCHESTER      FAIR      41  25  53 NW8       30.47F
RED WING       FAIR      52  10  19 N8        30.45F
STANTON        FAIR      46  20  36 W6        30.46F
DODGE CENTER   FAIR      43  23  45 CALM      30.47F
WINONA         FAIR      48  21  34 N7        30.44F
AUSTIN         FAIR      43  19  39 NW5       30.47F
PRESTON        FAIR      43  20  41 NW9       30.47F
$$
ABBREVIATIONS USED IN REMARKS
   TC - TEMPERATURES IN CELSIUS
  WCI - WIND CHILL INDEX
   HX - HEAT INDEX
  VSB - VISIBILITY
$$




USA.gov is the U.S. government's official web portal to all federal, state and local government web resources and services.